| time (UTC) | temp F | wind direction | speed knots | gust knots | rain 1hr in | rain 24hr in | rain mn in | humidity % | barometer mb |
| 20260505023219 | 77 | 54 | 0.0 | 0.0 | 0.00 | 0.00 | 0.00 | 99 | 1005.5 |
| 20260505022949 | 77 | 54 | 0.0 | 0.0 | 0.00 | 0.00 | 0.00 | 99 | 1005.5 |
| 20260505022749 | 78 | 54 | 0.0 | 0.0 | 0.00 | 0.00 | 0.00 | 99 | 1005.6 |
| 20260505022549 | 78 | 54 | 0.0 | 0.0 | 0.00 | 0.00 | 0.00 | 99 | 1005.6 |
| 20260505022319 | 78 | 54 | 0.0 | 0.0 | 0.00 | 0.00 | 0.00 | 99 | 1005.6 |
| 20260505022119 | 79 | 54 | 0.0 | 0.0 | 0.00 | 0.00 | 0.00 | 99 | 1005.6 |
| 20260505021849 | 79 | 54 | 0.0 | 0.9 | 0.00 | 0.00 | 0.00 | 99 | 1005.6 |
| 20260505021649 | 79 | 54 | 0.0 | 0.0 | 0.00 | 0.00 | 0.00 | 99 | 1005.7 |
| 20260505021449 | 79 | 54 | 0.0 | 0.0 | 0.00 | 0.00 | 0.00 | 99 | 1005.7 |
| 20260505021219 | 79 | 54 | 0.0 | 0.0 | 0.00 | 0.00 | 0.00 | 99 | 1005.7 |
| 20260505021019 | 79 | 54 | 0.0 | 0.9 | 0.00 | 0.00 | 0.00 | 99 | 1005.7 |
| 20260505020749 | 80 | 54 | 0.0 | 0.0 | 0.00 | 0.00 | 0.00 | 99 | 1005.8 |
| 20260505020519 | 80 | 54 | 0.0 | 0.0 | 0.00 | 0.00 | 0.00 | 99 | 1005.8 |
| 20260505020249 | 80 | 54 | 0.0 | 0.0 | 0.00 | 0.00 | 0.00 | 99 | 1005.8 |
| 20260505020049 | 80 | 54 | 0.0 | 0.0 | 0.00 | 0.00 | 0.00 | 99 | 1005.8 |
| 20260505015819 | 80 | 54 | 0.0 | 0.0 | 0.00 | 0.00 | 0.00 | 99 | 1005.8 |
| 20260505015619 | 80 | 54 | 0.0 | 0.0 | 0.00 | 0.00 | 0.00 | 99 | 1005.8 |
| 20260505015418 | 80 | 54 | 0.0 | 0.0 | 0.00 | 0.00 | 0.00 | 99 | 1005.8 |
| 20260505015219 | 80 | 54 | 0.0 | 0.0 | 0.00 | 0.00 | 0.00 | 99 | 1005.8 |
| 20260505015018 | 80 | 54 | 0.0 | 0.0 | 0.00 | 0.00 | 0.00 | 99 | 1005.8 |
| 20260505014818 | 81 | 54 | 0.0 | 0.9 | 0.00 | 0.00 | 0.00 | 99 | 1005.8 |
| 20260505014618 | 81 | 54 | 0.0 | 0.0 | 0.00 | 0.00 | 0.00 | 99 | 1005.7 |
| 20260505014418 | 81 | 54 | 0.0 | 0.0 | 0.00 | 0.00 | 0.00 | 99 | 1005.8 |
| 20260505014218 | 81 | 54 | 0.0 | 0.0 | 0.00 | 0.00 | 0.00 | 99 | 1005.8 |
| 20260505013948 | 80 | 54 | 0.0 | 0.0 | 0.00 | 0.00 | 0.00 | 99 | 1005.8 |
| 20260505013748 | 80 | 54 | 0.0 | 0.0 | 0.00 | 0.00 | 0.00 | 99 | 1005.8 |
| 20260505013518 | 80 | 54 | 0.0 | 0.9 | 0.00 | 0.00 | 0.00 | 99 | 1005.8 |
| 20260505013318 | 80 | 54 | 0.0 | 0.9 | 0.00 | 0.00 | 0.00 | 99 | 1005.9 |
| 20260505013118 | 80 | 54 | 0.0 | 0.0 | 0.00 | 0.00 | 0.00 | 99 | 1005.9 |
| 20260505012918 | 80 | 54 | 0.0 | 0.0 | 0.00 | 0.00 | 0.00 | 99 | 1005.9 |
| 20260505012718 | 80 | 54 | 0.0 | 0.0 | 0.00 | 0.00 | 0.00 | 99 | 1005.9 |
| 20260505012518 | 80 | 54 | 0.0 | 0.0 | 0.00 | 0.00 | 0.00 | 99 | 1005.9 |
| 20260505012248 | 80 | 54 | 0.0 | 0.0 | 0.00 | 0.00 | 0.00 | 99 | 1005.9 |
| 20260505012048 | 80 | 54 | 0.0 | 0.0 | 0.00 | 0.00 | 0.00 | 99 | 1005.9 |
| 20260505011818 | 80 | 54 | 0.0 | 0.0 | 0.00 | 0.00 | 0.00 | 99 | 1005.9 |
| 20260505011618 | 80 | 54 | 0.0 | 0.0 | 0.00 | 0.00 | 0.00 | 99 | 1005.9 |
| 20260505011418 | 80 | 54 | 0.0 | 0.0 | 0.00 | 0.00 | 0.00 | 99 | 1006.0 |
| 20260505011218 | 80 | 54 | 0.9 | 2.6 | 0.00 | 0.00 | 0.00 | 99 | 1006.0 |
| 20260505011018 | 80 | 54 | 0.0 | 1.7 | 0.00 | 0.00 | 0.00 | 99 | 1006.0 |
| 20260505010748 | 80 | 54 | 0.0 | 0.9 | 0.00 | 0.00 | 0.00 | 99 | 1006.0 |
| 20260505010548 | 80 | 54 | 0.0 | 0.9 | 0.00 | 0.00 | 0.00 | 99 | 1006.0 |
| 20260505010319 | 80 | 54 | 0.0 | 1.7 | 0.00 | 0.00 | 0.00 | 99 | 1006.1 |
| 20260505010118 | 80 | 54 | 0.9 | 1.7 | 0.00 | 0.00 | 0.00 | 99 | 1006.1 |
| 20260505005918 | 80 | 54 | 0.0 | 2.6 | 0.00 | 0.00 | 0.00 | 99 | 1006.1 |
| 20260505005718 | 80 | 54 | 0.0 | 1.7 | 0.00 | 0.00 | 0.00 | 99 | 1006.1 |
| 20260505005448 | 81 | 54 | 0.0 | 1.7 | 0.00 | 0.00 | 0.00 | 99 | 1006.2 |
| 20260505005218 | 81 | 54 | 0.0 | 0.9 | 0.00 | 0.00 | 0.00 | 99 | 1006.2 |
| 20260505004948 | 81 | 54 | 0.0 | 0.0 | 0.00 | 0.00 | 0.00 | 99 | 1006.3 |
| 20260505004748 | 81 | 54 | 0.0 | 0.0 | 0.00 | 0.00 | 0.00 | 99 | 1006.3 |
| 20260505004548 | 80 | 54 | 0.0 | 0.0 | 0.00 | 0.00 | 0.00 | 99 | 1006.3 |
| 20260505004318 | 80 | 54 | 0.0 | 0.9 | 0.00 | 0.00 | 0.00 | 99 | 1006.3 |
| 20260505004048 | 80 | 54 | 0.9 | 2.6 | 0.00 | 0.00 | 0.00 | 99 | 1006.3 |
| 20260505003848 | 80 | 54 | 0.9 | 2.6 | 0.00 | 0.00 | 0.00 | 99 | 1006.3 |
| 20260505003648 | 80 | 54 | 0.0 | 0.9 | 0.00 | 0.00 | 0.00 | 99 | 1006.4 |
| 20260505003448 | 80 | 54 | 0.0 | 0.0 | 0.00 | 0.00 | 0.00 | 99 | 1006.4 |
| 20260505003218 | 81 | 54 | 0.9 | 1.7 | 0.00 | 0.00 | 0.00 | 99 | 1006.4 |
| 20260505002948 | 81 | 54 | 0.0 | 0.9 | 0.00 | 0.00 | 0.00 | 99 | 1006.4 |
| 20260505002718 | 81 | 54 | 0.9 | 2.6 | 0.00 | 0.00 | 0.00 | 99 | 1006.4 |
| 20260505002448 | 82 | 54 | 0.9 | 2.6 | 0.00 | 0.00 | 0.00 | 99 | 1006.4 |
| 20260505002248 | 82 | 54 | 0.9 | 2.6 | 0.00 | 0.00 | 0.00 | 99 | 1006.5 |
| 20260505002048 | 81 | 54 | 0.0 | 0.0 | 0.00 | 0.00 | 0.00 | 99 | 1006.4 |
| 20260505001818 | 81 | 54 | 0.0 | 0.0 | 0.00 | 0.00 | 0.00 | 99 | 1006.5 |
| 20260505001618 | 80 | 54 | 0.0 | 0.9 | 0.00 | 0.00 | 0.00 | 99 | 1006.5 |
| 20260505001418 | 80 | 54 | 0.0 | 1.7 | 0.00 | 0.00 | 0.00 | 99 | 1006.4 |
| 20260505001148 | 80 | 54 | 0.9 | 2.6 | 0.00 | 0.00 | 0.00 | 99 | 1006.4 |
| 20260505000948 | 80 | 54 | 0.9 | 1.7 | 0.00 | 0.00 | 0.00 | 99 | 1006.4 |
| 20260505000718 | 80 | 54 | 0.9 | 1.7 | 0.00 | 0.00 | 0.00 | 99 | 1006.4 |
| 20260505000518 | 79 | 54 | 0.9 | 2.6 | 0.00 | 0.00 | 0.00 | 99 | 1006.4 |
| 20260505000318 | 79 | 54 | 0.9 | 2.6 | 0.00 | 0.00 | 0.00 | 99 | 1006.5 |
| 20260505000118 | 79 | 54 | 0.9 | 1.7 | 0.00 | 0.00 | 0.00 | 99 | 1006.4 |
| 20260504235918 | 78 | 54 | 0.0 | 0.0 | 0.00 | 0.00 | 0.00 | 99 | 1006.5 |
| 20260504235648 | 78 | 54 | 1.7 | 2.6 | 0.00 | 0.00 | 0.00 | 99 | 1006.5 |
| 20260504235448 | 78 | 54 | 1.7 | 2.6 | 0.00 | 0.00 | 0.00 | 99 | 1006.5 |
| 20260504235218 | 79 | 60 | 2.6 | 2.6 | 0.00 | 0.00 | 0.00 | 99 | 1006.5 |
| 20260504234948 | 79 | 65 | 1.7 | 2.6 | 0.00 | 0.00 | 0.00 | 99 | 1006.5 |
| 20260504234748 | 80 | 65 | 2.6 | 2.6 | 0.00 | 0.00 | 0.00 | 99 | 1006.5 |
| 20260504234518 | 81 | 63 | 2.6 | 5.2 | 0.00 | 0.00 | 0.00 | 99 | 1006.5 |
| 20260504234248 | 82 | 65 | 1.7 | 4.3 | 0.00 | 0.00 | 0.00 | 99 | 1006.5 |
| 20260504234048 | 82 | 87 | 0.0 | 2.6 | 0.00 | 0.00 | 0.00 | 99 | 1006.5 |
| 20260504233818 | 81 | 144 | 0.9 | 0.9 | 0.00 | 0.00 | 0.00 | 99 | 1006.5 |
| 20260504233618 | 82 | 115 | 0.9 | 4.3 | 0.00 | 0.00 | 0.00 | 99 | 1006.5 |
| 20260504233418 | 81 | 167 | 0.0 | 0.9 | 0.00 | 0.00 | 0.00 | 99 | 1006.5 |
| 20260504233148 | 81 | 181 | 0.0 | 0.0 | 0.00 | 0.00 | 0.00 | 99 | 1006.6 |
| 20260504232918 | 80 | 184 | 0.0 | 1.7 | 0.00 | 0.00 | 0.00 | 99 | 1006.5 |
| 20260504232648 | 79 | 187 | 0.0 | 0.0 | 0.00 | 0.00 | 0.00 | 99 | 1006.6 |
| 20260504232448 | 79 | 139 | 0.9 | 2.6 | 0.00 | 0.00 | 0.00 | 99 | 1006.6 |
| 20260504232248 | 79 | 25 | 1.7 | 1.7 | 0.00 | 0.00 | 0.00 | 99 | 1006.6 |
| 20260504232018 | 79 | 70 | 1.7 | 2.6 | 0.00 | 0.00 | 0.00 | 99 | 1006.7 |
| 20260504231748 | 79 | 82 | 0.9 | 1.7 | 0.00 | 0.00 | 0.00 | 99 | 1006.6 |
| 20260504231518 | 79 | 59 | 0.9 | 5.2 | 0.00 | 0.00 | 0.00 | 99 | 1006.7 |
| 20260504231318 | 79 | 55 | 1.7 | 2.6 | 0.00 | 0.00 | 0.00 | 99 | 1006.7 |
| 20260504231048 | 78 | 57 | 0.0 | 1.7 | 0.00 | 0.00 | 0.00 | 99 | 1006.7 |
| 20260504230818 | 78 | 57 | 1.7 | 2.6 | 0.00 | 0.00 | 0.00 | 99 | 1006.7 |
| 20260504230548 | 78 | 55 | 2.6 | 2.6 | 0.00 | 0.00 | 0.00 | 99 | 1006.7 |
| 20260504230348 | 78 | 54 | 1.7 | 2.6 | 0.00 | 0.00 | 0.00 | 99 | 1006.8 |
| 20260504230118 | 78 | 52 | 1.7 | 6.1 | 0.00 | 0.00 | 0.00 | 99 | 1006.7 |
| 20260504225918 | 78 | 57 | 2.6 | 5.2 | 0.00 | 0.00 | 0.00 | 99 | 1006.7 |
| 20260504225718 | 79 | 62 | 6.1 | 6.1 | 0.00 | 0.00 | 0.00 | 99 | 1006.8 |
| 20260504225448 | 80 | 75 | 2.6 | 5.2 | 0.00 | 0.00 | 0.00 | 99 | 1006.8 |
| 20260504225248 | 80 | 74 | 4.3 | 5.2 | 0.00 | 0.00 | 0.00 | 99 | 1006.8 |
| 20260504225018 | 80 | 72 | 1.7 | 5.2 | 0.00 | 0.00 | 0.00 | 99 | 1006.8 |
| 20260504224818 | 80 | 40 | 0.0 | 2.6 | 0.00 | 0.00 | 0.00 | 99 | 1006.9 |
| 20260504224618 | 80 | 84 | 2.6 | 2.6 | 0.00 | 0.00 | 0.00 | 99 | 1006.9 |
| 20260504224348 | 81 | 61 | 1.7 | 5.2 | 0.00 | 0.00 | 0.00 | 99 | 1006.9 |
| 20260504224148 | 81 | 77 | 2.6 | 6.1 | 0.00 | 0.00 | 0.00 | 99 | 1006.9 |
| 20260504223918 | 81 | 91 | 0.0 | 1.7 | 0.00 | 0.00 | 0.00 | 99 | 1006.9 |
| 20260504223718 | 80 | 22 | 1.7 | 4.3 | 0.00 | 0.00 | 0.00 | 99 | 1006.9 |
| 20260504223518 | 81 | 8 | 2.6 | 4.3 | 0.00 | 0.00 | 0.00 | 99 | 1006.9 |
| 20260504223248 | 81 | 12 | 1.7 | 2.6 | 0.00 | 0.00 | 0.00 | 99 | 1006.9 |
| 20260504223018 | 81 | 23 | 2.6 | 2.6 | 0.00 | 0.00 | 0.00 | 99 | 1006.9 |
| 20260504222748 | 81 | 66 | 0.9 | 1.7 | 0.00 | 0.00 | 0.00 | 99 | 1007.0 |
| 20260504222518 | 81 | 66 | 0.0 | 0.9 | 0.00 | 0.00 | 0.00 | 99 | 1007.0 |
| 20260504222248 | 80 | 66 | 0.0 | 0.9 | 0.00 | 0.00 | 0.00 | 99 | 1007.0 |
| 20260504222048 | 80 | 66 | 0.9 | 2.6 | 0.00 | 0.00 | 0.00 | 99 | 1007.0 |
| 20260504221818 | 81 | 66 | 0.9 | 2.6 | 0.00 | 0.00 | 0.00 | 99 | 1007.1 |
| 20260504221618 | 80 | 66 | 0.9 | 2.6 | 0.00 | 0.00 | 0.00 | 99 | 1007.1 |
| 20260504221418 | 80 | 66 | 0.0 | 1.7 | 0.00 | 0.00 | 0.00 | 99 | 1007.1 |
| 20260504221148 | 80 | 66 | 1.7 | 4.3 | 0.00 | 0.00 | 0.00 | 99 | 1007.1 |
| 20260504220948 | 80 | 66 | 0.9 | 1.7 | 0.00 | 0.00 | 0.00 | 99 | 1007.1 |
| 20260504220748 | 80 | 66 | 0.0 | 0.0 | 0.00 | 0.00 | 0.00 | 99 | 1007.1 |
| 20260504220518 | 80 | 43 | 0.9 | 0.9 | 0.00 | 0.00 | 0.00 | 99 | 1007.2 |
| 20260504220248 | 80 | 66 | 0.0 | 1.7 | 0.00 | 0.00 | 0.00 | 99 | 1007.2 |
| 20260504220048 | 80 | 77 | 0.0 | 1.7 | 0.00 | 0.00 | 0.00 | 99 | 1007.2 |
| 20260504215848 | 80 | 77 | 0.0 | 0.9 | 0.00 | 0.00 | 0.00 | 99 | 1007.2 |
| 20260504215648 | 80 | 342 | 0.9 | 2.6 | 0.00 | 0.00 | 0.00 | 99 | 1007.2 |
| 20260504215418 | 80 | 9 | 1.7 | 2.6 | 0.00 | 0.00 | 0.00 | 99 | 1007.2 |
| 20260504215218 | 80 | 14 | 0.9 | 2.6 | 0.00 | 0.00 | 0.00 | 99 | 1007.2 |
| 20260504215018 | 80 | 61 | 0.9 | 2.6 | 0.00 | 0.00 | 0.00 | 99 | 1007.3 |
| 20260504214818 | 80 | 61 | 0.0 | 0.9 | 0.00 | 0.00 | 0.00 | 99 | 1007.3 |
| 20260504214548 | 80 | 3 | 2.6 | 4.3 | 0.00 | 0.00 | 0.00 | 99 | 1007.3 |
| 20260504214318 | 80 | 22 | 0.9 | 2.6 | 0.00 | 0.00 | 0.00 | 99 | 1007.4 |
| 20260504214048 | 80 | 69 | 0.9 | 0.9 | 0.00 | 0.00 | 0.00 | 99 | 1007.4 |
| 20260504213818 | 80 | 57 | 0.9 | 2.6 | 0.00 | 0.00 | 0.00 | 99 | 1007.5 |
| 20260504213548 | 80 | 350 | 0.9 | 2.6 | 0.00 | 0.00 | 0.00 | 99 | 1007.5 |
| 20260504213318 | 80 | 11 | 2.6 | 2.6 | 0.00 | 0.00 | 0.00 | 99 | 1007.4 |
| 20260504213119 | 80 | 354 | 0.9 | 4.3 | 0.00 | 0.00 | 0.00 | 99 | 1007.4 |
| 20260504212848 | 80 | 345 | 1.7 | 2.6 | 0.00 | 0.00 | 0.00 | 99 | 1007.5 |
| 20260504212648 | 79 | 9 | 1.7 | 1.7 | 0.00 | 0.00 | 0.00 | 99 | 1007.5 |
| 20260504212418 | 79 | 338 | 1.7 | 2.6 | 0.00 | 0.00 | 0.00 | 99 | 1007.5 |
| 20260504212218 | 79 | 350 | 1.7 | 4.3 | 0.00 | 0.00 | 0.00 | 99 | 1007.5 |
| 20260504211948 | 78 | 0 | 0.0 | 2.6 | 0.00 | 0.00 | 0.00 | 99 | 1007.6 |
| 20260504211748 | 78 | 17 | 1.7 | 4.3 | 0.00 | 0.00 | 0.00 | 99 | 1007.6 |
| 20260504211518 | 78 | 5 | 0.9 | 0.9 | 0.00 | 0.00 | 0.00 | 99 | 1007.6 |
| 20260504211248 | 78 | 5 | 0.9 | 2.6 | 0.00 | 0.00 | 0.00 | 99 | 1007.6 |
| 20260504211048 | 77 | 4 | 1.7 | 2.6 | 0.00 | 0.00 | 0.00 | 99 | 1007.7 |
| 20260504210818 | 77 | 342 | 1.7 | 4.3 | 0.00 | 0.00 | 0.00 | 99 | 1007.7 |
| 20260504210618 | 77 | 21 | 0.9 | 2.6 | 0.00 | 0.00 | 0.00 | 99 | 1007.7 |
| 20260504210348 | 77 | 10 | 1.7 | 4.3 | 0.00 | 0.00 | 0.00 | 99 | 1007.7 |
| 20260504210148 | 77 | 26 | 1.7 | 2.6 | 0.00 | 0.00 | 0.00 | 99 | 1007.7 |
| 20260504205918 | 77 | 25 | 0.9 | 2.6 | 0.00 | 0.00 | 0.00 | 99 | 1007.8 |
| 20260504205718 | 77 | 28 | 2.6 | 2.6 | 0.00 | 0.00 | 0.00 | 99 | 1007.7 |
| 20260504205448 | 77 | 2 | 1.7 | 5.2 | 0.00 | 0.00 | 0.00 | 99 | 1007.8 |
| 20260504205218 | 77 | 350 | 1.7 | 6.1 | 0.00 | 0.00 | 0.00 | 99 | 1007.8 |
| 20260504204948 | 78 | 26 | 2.6 | 2.6 | 0.00 | 0.00 | 0.00 | 99 | 1007.9 |
| 20260504204718 | 78 | 356 | 1.7 | 4.3 | 0.00 | 0.00 | 0.00 | 99 | 1007.9 |
| 20260504204518 | 78 | 11 | 0.9 | 1.7 | 0.00 | 0.00 | 0.00 | 99 | 1007.9 |
| 20260504204248 | 78 | 18 | 0.9 | 2.6 | 0.00 | 0.00 | 0.00 | 99 | 1007.9 |
| 20260504204048 | 78 | 340 | 0.9 | 0.9 | 0.00 | 0.00 | 0.00 | 99 | 1008.0 |
| 20260504203848 | 77 | 16 | 0.9 | 2.6 | 0.00 | 0.00 | 0.00 | 99 | 1008.0 |
| 20260504203618 | 77 | 356 | 1.7 | 2.6 | 0.00 | 0.00 | 0.00 | 99 | 1008.0 |
| 20260504203348 | 77 | 349 | 1.7 | 4.3 | 0.00 | 0.00 | 0.00 | 99 | 1008.0 |
| 20260504203118 | 77 | 3 | 2.6 | 4.3 | 0.00 | 0.00 | 0.00 | 99 | 1008.0 |
| 20260504202848 | 76 | 7 | 1.7 | 5.2 | 0.00 | 0.00 | 0.00 | 99 | 1008.0 |
| 20260504202648 | 76 | 5 | 2.6 | 4.3 | 0.00 | 0.00 | 0.00 | 99 | 1008.0 |
| 20260504202418 | 76 | 357 | 2.6 | 2.6 | 0.00 | 0.00 | 0.00 | 99 | 1008.0 |
| 20260504202218 | 76 | 22 | 2.6 | 4.3 | 0.00 | 0.00 | 0.00 | 99 | 1008.0 |
| 20260504202018 | 76 | 8 | 1.7 | 2.6 | 0.00 | 0.00 | 0.00 | 99 | 1008.0 |
| 20260504201748 | 76 | 0 | 1.7 | 4.3 | 0.00 | 0.00 | 0.00 | 99 | 1007.9 |
| 20260504201548 | 76 | 16 | 1.7 | 2.6 | 0.00 | 0.00 | 0.00 | 99 | 1008.0 |
| 20260504201348 | 76 | 18 | 2.6 | 5.2 | 0.00 | 0.00 | 0.00 | 99 | 1008.0 |
| 20260504201118 | 76 | 26 | 1.7 | 4.3 | 0.00 | 0.00 | 0.00 | 99 | 1008.0 |
| 20260504200848 | 76 | 17 | 2.6 | 2.6 | 0.00 | 0.00 | 0.00 | 99 | 1008.1 |
| 20260504200648 | 76 | 1 | 1.7 | 4.3 | 0.00 | 0.00 | 0.00 | 99 | 1008.0 |
| 20260504200418 | 76 | 1 | 2.6 | 7.0 | 0.00 | 0.00 | 0.00 | 99 | 1008.1 |
| 20260504200218 | 76 | 358 | 4.3 | 6.1 | 0.00 | 0.00 | 0.00 | 99 | 1008.0 |
| 20260504200018 | 76 | 5 | 2.6 | 4.3 | 0.00 | 0.00 | 0.00 | 99 | 1008.0 |
| 20260504195818 | 76 | 7 | 2.6 | 4.3 | 0.00 | 0.00 | 0.00 | 99 | 1008.1 |
| 20260504195548 | 75 | 13 | 2.6 | 4.3 | 0.00 | 0.00 | 0.00 | 99 | 1008.1 |
| 20260504195348 | 75 | 1 | 2.6 | 4.3 | 0.00 | 0.00 | 0.00 | 99 | 1008.1 |
| 20260504195148 | 75 | 0 | 2.6 | 4.3 | 0.00 | 0.00 | 0.00 | 99 | 1008.1 |
| 20260504194948 | 74 | 1 | 2.6 | 5.2 | 0.00 | 0.00 | 0.00 | 99 | 1008.1 |
| 20260504194718 | 74 | 14 | 2.6 | 4.3 | 0.00 | 0.00 | 0.00 | 99 | 1008.2 |
| 20260504194448 | 74 | 356 | 2.6 | 4.3 | 0.00 | 0.00 | 0.00 | 99 | 1008.2 |
| 20260504194248 | 74 | 353 | 4.3 | 5.2 | 0.00 | 0.00 | 0.00 | 99 | 1008.2 |
| 20260504194048 | 74 | 15 | 1.7 | 2.6 | 0.00 | 0.00 | 0.00 | 99 | 1008.2 |
| 20260504193848 | 74 | 32 | 2.6 | 4.3 | 0.00 | 0.00 | 0.00 | 99 | 1008.3 |
| 20260504193618 | 74 | 4 | 2.6 | 5.2 | 0.00 | 0.00 | 0.00 | 99 | 1008.2 |
| 20260504193418 | 74 | 14 | 2.6 | 4.3 | 0.00 | 0.00 | 0.00 | 99 | 1008.2 |
| 20260504193218 | 74 | 10 | 4.3 | 5.2 | 0.00 | 0.00 | 0.00 | 99 | 1008.2 |
| 20260504193018 | 74 | 4 | 5.2 | 7.0 | 0.00 | 0.00 | 0.00 | 99 | 1008.2 |
| 20260504192748 | 74 | 10 | 1.7 | 5.2 | 0.00 | 0.00 | 0.00 | 99 | 1008.2 |
| 20260504192518 | 74 | 2 | 2.6 | 4.3 | 0.00 | 0.00 | 0.00 | 99 | 1008.2 |
| 20260504192248 | 74 | 11 | 2.6 | 2.6 | 0.00 | 0.00 | 0.00 | 99 | 1008.2 |
| 20260504192048 | 74 | 5 | 4.3 | 4.3 | 0.00 | 0.00 | 0.00 | 99 | 1008.3 |
| 20260504191818 | 74 | 4 | 2.6 | 5.2 | 0.00 | 0.00 | 0.00 | 99 | 1008.3 |
| 20260504191548 | 75 | 9 | 4.3 | 4.3 | 0.00 | 0.00 | 0.00 | 99 | 1008.3 |
| 20260504191348 | 75 | 12 | 2.6 | 7.0 | 0.00 | 0.00 | 0.00 | 99 | 1008.3 |
| 20260504191148 | 75 | 8 | 2.6 | 2.6 | 0.00 | 0.00 | 0.00 | 99 | 1008.3 |
| 20260504190918 | 75 | 2 | 1.7 | 4.3 | 0.00 | 0.00 | 0.00 | 99 | 1008.4 |
| 20260504190648 | 74 | 20 | 1.7 | 2.6 | 0.00 | 0.00 | 0.00 | 99 | 1008.3 |
| 20260504190448 | 74 | 21 | 1.7 | 4.3 | 0.00 | 0.00 | 0.00 | 99 | 1008.4 |
| 20260504190248 | 74 | 17 | 2.6 | 4.3 | 0.00 | 0.00 | 0.00 | 99 | 1008.4 |
| 20260504190018 | 74 | 12 | 1.7 | 2.6 | 0.00 | 0.00 | 0.00 | 99 | 1008.4 |
| 20260504185818 | 74 | 29 | 0.9 | 2.6 | 0.00 | 0.00 | 0.00 | 99 | 1008.4 |
| 20260504185618 | 74 | 29 | 2.6 | 2.6 | 0.00 | 0.00 | 0.00 | 99 | 1008.4 |
| 20260504185418 | 74 | 24 | 1.7 | 2.6 | 0.00 | 0.00 | 0.00 | 99 | 1008.4 |
| 20260504185218 | 74 | 27 | 2.6 | 2.6 | 0.00 | 0.00 | 0.00 | 99 | 1008.4 |
| 20260504185018 | 74 | 5 | 1.7 | 2.6 | 0.00 | 0.00 | 0.00 | 99 | 1008.5 |
| 20260504184748 | 74 | 5 | 2.6 | 2.6 | 0.00 | 0.00 | 0.00 | 99 | 1008.5 |
| 20260504184518 | 74 | 13 | 0.9 | 2.6 | 0.00 | 0.00 | 0.00 | 99 | 1008.5 |
| 20260504184248 | 75 | 7 | 2.6 | 4.3 | 0.00 | 0.00 | 0.00 | 99 | 1008.5 |
| 20260504184048 | 75 | 0 | 0.9 | 2.6 | 0.00 | 0.00 | 0.00 | 99 | 1008.5 |
| 20260504183848 | 75 | 0 | 1.7 | 1.7 | 0.00 | 0.00 | 0.00 | 99 | 1008.5 |
| 20260504183648 | 75 | 4 | 0.0 | 1.7 | 0.00 | 0.00 | 0.00 | 99 | 1008.6 |
| 20260504183418 | 75 | 5 | 0.9 | 2.6 | 0.00 | 0.00 | 0.00 | 99 | 1008.6 |
| 20260504183218 | 74 | 1 | 0.0 | 1.7 | 0.00 | 0.00 | 0.00 | 99 | 1008.6 |
| 20260504183018 | 74 | 0 | 0.9 | 1.7 | 0.00 | 0.00 | 0.00 | 99 | 1008.6 |
| 20260504182818 | 74 | 0 | 0.9 | 1.7 | 0.00 | 0.00 | 0.00 | 99 | 1008.6 |
| 20260504182548 | 73 | 0 | 0.9 | 1.7 | 0.00 | 0.00 | 0.00 | 99 | 1008.6 |
| 20260504182318 | 73 | 0 | 1.7 | 2.6 | 0.00 | 0.00 | 0.00 | 99 | 1008.6 |
| 20260504182118 | 73 | 17 | 1.7 | 1.7 | 0.00 | 0.00 | 0.00 | 99 | 1008.7 |
| 20260504181918 | 73 | 19 | 0.9 | 1.7 | 0.00 | 0.00 | 0.00 | 99 | 1008.7 |
| 20260504181718 | 73 | 16 | 0.9 | 2.6 | 0.00 | 0.00 | 0.00 | 99 | 1008.6 |
| 20260504181518 | 73 | 31 | 2.6 | 2.6 | 0.00 | 0.00 | 0.00 | 99 | 1008.6 |
| 20260504181248 | 73 | 358 | 2.6 | 4.3 | 0.00 | 0.00 | 0.00 | 99 | 1008.7 |
| 20260504181018 | 73 | 25 | 2.6 | 2.6 | 0.00 | 0.00 | 0.00 | 99 | 1008.6 |
| 20260504180748 | 73 | 17 | 1.7 | 2.6 | 0.00 | 0.00 | 0.00 | 99 | 1008.6 |
| 20260504180518 | 73 | 12 | 1.7 | 2.6 | 0.00 | 0.00 | 0.00 | 99 | 1008.6 |
| 20260504180248 | 73 | 5 | 1.7 | 2.6 | 0.00 | 0.00 | 0.00 | 99 | 1008.6 |
| 20260504180018 | 73 | 0 | 1.7 | 2.6 | 0.00 | 0.00 | 0.00 | 99 | 1008.6 |
| 20260504175748 | 73 | 16 | 2.6 | 2.6 | 0.00 | 0.00 | 0.00 | 99 | 1008.6 |
| 20260504175548 | 73 | 11 | 2.6 | 2.6 | 0.00 | 0.00 | 0.00 | 99 | 1008.6 |
| 20260504175348 | 74 | 6 | 2.6 | 4.3 | 0.00 | 0.00 | 0.00 | 99 | 1008.6 |
| 20260504175118 | 74 | 358 | 4.3 | 5.2 | 0.00 | 0.00 | 0.00 | 99 | 1008.5 |
| 20260504174848 | 75 | 23 | 0.9 | 2.6 | 0.00 | 0.00 | 0.00 | 99 | 1008.5 |
| 20260504174648 | 75 | 21 | 1.7 | 2.6 | 0.00 | 0.00 | 0.00 | 99 | 1008.4 |
| 20260504174448 | 76 | 352 | 0.9 | 4.3 | 0.00 | 0.00 | 0.00 | 99 | 1008.4 |
| 20260504174218 | 75 | 333 | 0.0 | 1.7 | 0.00 | 0.00 | 0.00 | 99 | 1008.4 |
| 20260504174018 | 75 | 335 | 1.7 | 1.7 | 0.00 | 0.00 | 0.00 | 99 | 1008.4 |
| 20260504173818 | 75 | 0 | 0.0 | 1.7 | 0.00 | 0.00 | 0.00 | 99 | 1008.5 |
| 20260504173618 | 74 | 0 | 0.0 | 0.9 | 0.00 | 0.00 | 0.00 | 99 | 1008.5 |
| 20260504173348 | 74 | 330 | 0.0 | 0.0 | 0.00 | 0.00 | 0.00 | 99 | 1008.4 |
| 20260504173148 | 73 | 286 | 0.0 | 0.0 | 0.00 | 0.00 | 0.00 | 99 | 1008.4 |
| 20260504172918 | 73 | 279 | 0.0 | 0.0 | 0.00 | 0.00 | 0.00 | 99 | 1008.4 |
| 20260504172648 | 73 | 358 | 0.0 | 1.7 | 0.00 | 0.00 | 0.00 | 99 | 1008.5 |
| 20260504172418 | 73 | 5 | 0.0 | 1.7 | 0.00 | 0.00 | 0.00 | 99 | 1008.5 |
| 20260504172218 | 72 | 8 | 0.0 | 0.0 | 0.00 | 0.00 | 0.00 | 99 | 1008.5 |
| 20260504171948 | 72 | 5 | 0.0 | 0.9 | 0.00 | 0.00 | 0.00 | 99 | 1008.6 |
| 20260504171718 | 71 | 5 | 0.0 | 0.9 | 0.00 | 0.00 | 0.00 | 99 | 1008.6 |
| 20260504171448 | 71 | 5 | 0.0 | 1.7 | 0.00 | 0.00 | 0.00 | 99 | 1008.6 |
| 20260504171248 | 71 | 5 | 0.9 | 0.9 | 0.00 | 0.00 | 0.00 | 99 | 1008.6 |
| 20260504171018 | 71 | 5 | 1.7 | 2.6 | 0.00 | 0.00 | 0.00 | 99 | 1008.6 |
| 20260504170748 | 71 | 5 | 0.9 | 0.9 | 0.00 | 0.00 | 0.00 | 99 | 1008.6 |
| 20260504170548 | 71 | 5 | 0.9 | 1.7 | 0.00 | 0.00 | 0.00 | 99 | 1008.7 |
| 20260504170348 | 71 | 5 | 0.9 | 2.6 | 0.00 | 0.00 | 0.00 | 99 | 1008.7 |
| 20260504170148 | 71 | 9 | 1.7 | 2.6 | 0.00 | 0.00 | 0.00 | 99 | 1008.6 |
| 20260504160218 | 69 | 24 | 1.7 | 2.6 | 0.00 | 0.00 | 0.00 | 99 | 1008.8 |
| 20260504151017 | 68 | 254 | 0.0 | 1.7 | 0.00 | 0.00 | 0.00 | 99 | 1008.8 |
| 20260504150817 | 68 | 248 | 0.0 | 0.0 | 0.00 | 0.00 | 0.00 | 99 | 1008.8 |
| 20260504150617 | 68 | 248 | 0.0 | 0.0 | 0.00 | 0.00 | 0.00 | 99 | 1008.8 |
| 20260504150417 | 68 | 248 | 0.0 | 0.0 | 0.00 | 0.00 | 0.00 | 99 | 1008.8 |
| 20260504150147 | 67 | 248 | 0.0 | 0.0 | 0.00 | 0.00 | 0.00 | 99 | 1008.8 |
| 20260504141317 | 61 | 244 | 0.0 | 0.0 | 0.00 | 0.00 | 0.00 | 99 | 1008.4 |
| 20260504141047 | 60 | 244 | 0.0 | 0.0 | 0.00 | 0.00 | 0.00 | 99 | 1008.4 |
| 20260504140847 | 60 | 244 | 0.0 | 0.0 | 0.00 | 0.00 | 0.00 | 99 | 1008.3 |
| 20260504140647 | 60 | 244 | 0.0 | 0.0 | 0.00 | 0.00 | 0.00 | 99 | 1008.3 |
| 20260504140417 | 59 | 244 | 0.0 | 0.0 | 0.00 | 0.00 | 0.00 | 99 | 1008.3 |
| 20260504140147 | 59 | 244 | 0.0 | 0.0 | 0.00 | 0.00 | 0.00 | 99 | 1008.2 |
| 20260504130647 | 57 | 244 | 0.0 | 0.0 | 0.00 | 0.00 | 0.00 | 99 | 1008.0 |
| 20260504130417 | 57 | 244 | 0.0 | 0.0 | 0.00 | 0.00 | 0.00 | 99 | 1007.9 |
| 20260504130217 | 57 | 244 | 0.0 | 0.0 | 0.00 | 0.00 | 0.00 | 99 | 1007.9 |
| 20260504120247 | 57 | 244 | 0.0 | 0.0 | 0.00 | 0.00 | 0.00 | 99 | 1008.0 |
| 20260504110617 | 58 | 244 | 0.0 | 0.0 | 0.00 | 0.00 | 0.00 | 99 | 1007.8 |
| 20260504110417 | 58 | 244 | 0.0 | 0.0 | 0.00 | 0.00 | 0.00 | 99 | 1007.7 |
| 20260504110217 | 58 | 244 | 0.0 | 0.0 | 0.00 | 0.00 | 0.00 | 99 | 1007.7 |
| 20260504100517 | 58 | 244 | 0.0 | 0.0 | 0.00 | 0.00 | 0.00 | 99 | 1007.7 |
| 20260504100317 | 58 | 244 | 0.0 | 0.0 | 0.00 | 0.00 | 0.00 | 99 | 1007.7 |
| 20260504081817 | 61 | 302 | 0.0 | 0.0 | 0.00 | 0.00 | 0.00 | 99 | 1007.4 |
| 20260504081617 | 61 | 302 | 0.0 | 0.0 | 0.00 | 0.00 | 0.00 | 99 | 1007.4 |
| 20260504081347 | 61 | 302 | 0.0 | 0.0 | 0.00 | 0.00 | 0.00 | 99 | 1007.4 |
| 20260504081147 | 61 | 302 | 0.0 | 0.0 | 0.00 | 0.00 | 0.00 | 99 | 1007.4 |
| 20260504080947 | 61 | 302 | 0.0 | 0.0 | 0.00 | 0.00 | 0.00 | 99 | 1007.4 |
| 20260504080717 | 61 | 302 | 0.0 | 0.0 | 0.00 | 0.00 | 0.00 | 99 | 1007.4 |
| 20260504080517 | 61 | 302 | 0.0 | 0.0 | 0.00 | 0.00 | 0.00 | 99 | 1007.4 |
| 20260504080247 | 61 | 302 | 0.0 | 0.0 | 0.00 | 0.00 | 0.00 | 99 | 1007.4 |
| 20260504070247 | 63 | 304 | 0.0 | 0.0 | 0.00 | 0.00 | 0.00 | 99 | 1007.2 |
| 20260504060147 | 67 | 304 | 0.0 | 0.0 | 0.00 | 0.00 | 0.00 | 99 | 1007.1 |
| 20260504050646 | 70 | 304 | 0.0 | 0.0 | 0.00 | 0.00 | 0.00 | 99 | 1007.4 |
| 20260504050416 | 71 | 304 | 0.0 | 0.0 | 0.00 | 0.00 | 0.00 | 99 | 1007.4 |
| 20260504050216 | 71 | 304 | 0.0 | 0.0 | 0.00 | 0.00 | 0.00 | 99 | 1007.4 |
| 20260504050016 | 71 | 304 | 0.0 | 0.0 | 0.00 | 0.00 | 0.00 | 99 | 1007.3 |
| 20260504045816 | 71 | 304 | 0.0 | 0.0 | 0.00 | 0.00 | 0.00 | 99 | 1007.4 |
| 20260504045616 | 71 | 304 | 0.0 | 0.0 | 0.00 | 0.00 | 0.00 | 99 | 1007.3 |
| 20260504045416 | 71 | 304 | 0.0 | 0.0 | 0.00 | 0.00 | 0.00 | 99 | 1007.4 |
| 20260504045216 | 71 | 304 | 0.0 | 0.0 | 0.00 | 0.00 | 0.00 | 99 | 1007.3 |
| 20260504045016 | 71 | 304 | 0.0 | 0.0 | 0.00 | 0.00 | 0.00 | 99 | 1007.3 |
| 20260504044816 | 71 | 304 | 0.0 | 0.0 | 0.00 | 0.00 | 0.00 | 99 | 1007.3 |
| 20260504044546 | 71 | 304 | 0.0 | 0.0 | 0.00 | 0.00 | 0.00 | 99 | 1007.3 |
| 20260504044316 | 71 | 304 | 0.0 | 0.0 | 0.00 | 0.00 | 0.00 | 99 | 1007.3 |
| 20260504044116 | 71 | 304 | 0.0 | 0.0 | 0.00 | 0.00 | 0.00 | 99 | 1007.3 |
| 20260504043846 | 72 | 304 | 0.0 | 0.0 | 0.00 | 0.00 | 0.00 | 99 | 1007.3 |
| 20260504043646 | 72 | 304 | 0.0 | 0.0 | 0.00 | 0.00 | 0.00 | 99 | 1007.3 |
| 20260504043446 | 72 | 304 | 0.0 | 0.0 | 0.00 | 0.00 | 0.00 | 99 | 1007.3 |
| 20260504043246 | 72 | 304 | 0.0 | 0.0 | 0.00 | 0.00 | 0.00 | 99 | 1007.3 |
| 20260504043046 | 72 | 304 | 0.0 | 0.0 | 0.00 | 0.00 | 0.00 | 99 | 1007.4 |
| 20260504042816 | 72 | 304 | 0.0 | 0.0 | 0.00 | 0.00 | 0.00 | 99 | 1007.4 |
| 20260504042546 | 73 | 304 | 0.0 | 0.0 | 0.00 | 0.00 | 0.00 | 99 | 1007.4 |
| 20260504042316 | 73 | 304 | 0.0 | 0.0 | 0.00 | 0.00 | 0.00 | 99 | 1007.3 |
| 20260504042116 | 73 | 304 | 0.0 | 0.0 | 0.00 | 0.00 | 0.00 | 99 | 1007.4 |
| 20260504041916 | 73 | 304 | 0.0 | 0.0 | 0.00 | 0.00 | 0.00 | 99 | 1007.4 |
| 20260504041646 | 74 | 304 | 0.0 | 0.0 | 0.00 | 0.00 | 0.00 | 99 | 1007.3 |
| 20260504041416 | 74 | 304 | 0.0 | 0.0 | 0.00 | 0.00 | 0.00 | 99 | 1007.3 |
| 20260504041216 | 74 | 304 | 0.0 | 0.9 | 0.00 | 0.00 | 0.00 | 99 | 1007.3 |
| 20260504040946 | 74 | 304 | 0.0 | 0.0 | 0.00 | 0.00 | 0.00 | 99 | 1007.3 |
| 20260504040716 | 74 | 302 | 0.9 | 0.9 | 0.00 | 0.00 | 0.00 | 99 | 1007.3 |
| 20260504040516 | 75 | 304 | 0.0 | 0.0 | 0.00 | 0.00 | 0.00 | 99 | 1007.3 |
| 20260504040316 | 75 | 321 | 0.0 | 0.0 | 0.00 | 0.00 | 0.00 | 99 | 1007.3 |
| 20260504040046 | 75 | 321 | 0.0 | 0.0 | 0.00 | 0.00 | 0.00 | 99 | 1007.3 |
| 20260504035816 | 75 | 324 | 0.9 | 1.7 | 0.00 | 0.00 | 0.00 | 99 | 1007.3 |
| 20260504035546 | 75 | 337 | 1.7 | 2.6 | 0.00 | 0.00 | 0.00 | 99 | 1007.3 |
| 20260504035316 | 74 | 261 | 0.0 | 0.9 | 0.00 | 0.00 | 0.00 | 99 | 1007.2 |
| 20260504035116 | 74 | 261 | 0.0 | 0.0 | 0.00 | 0.00 | 0.00 | 99 | 1007.2 |
| 20260504034916 | 74 | 289 | 0.0 | 2.6 | 0.00 | 0.00 | 0.00 | 99 | 1007.3 |
| 20260504034646 | 74 | 304 | 0.0 | 0.0 | 0.00 | 0.00 | 0.00 | 99 | 1007.2 |
| 20260504034446 | 75 | 304 | 0.0 | 0.0 | 0.00 | 0.00 | 0.00 | 99 | 1007.3 |
| 20260504034246 | 75 | 304 | 0.0 | 0.0 | 0.00 | 0.00 | 0.00 | 99 | 1007.2 |
| 20260504034046 | 75 | 304 | 0.0 | 0.0 | 0.00 | 0.00 | 0.00 | 99 | 1007.3 |
| 20260504033846 | 75 | 304 | 0.0 | 0.0 | 0.00 | 0.00 | 0.00 | 99 | 1007.3 |
| 20260504033616 | 75 | 304 | 0.0 | 0.0 | 0.00 | 0.00 | 0.00 | 99 | 1007.3 |
| 20260504033416 | 75 | 304 | 0.0 | 0.0 | 0.00 | 0.00 | 0.00 | 99 | 1007.3 |
| 20260504033216 | 75 | 327 | 0.9 | 2.6 | 0.00 | 0.00 | 0.00 | 99 | 1007.3 |
| 20260504032946 | 75 | 241 | 0.0 | 0.0 | 0.00 | 0.00 | 0.00 | 99 | 1007.3 |
| 20260504032716 | 76 | 309 | 0.0 | 0.0 | 0.00 | 0.00 | 0.00 | 99 | 1007.3 |
| 20260504032446 | 76 | 308 | 0.0 | 0.0 | 0.00 | 0.00 | 0.00 | 99 | 1007.3 |
| 20260504032216 | 76 | 334 | 0.0 | 0.0 | 0.00 | 0.00 | 0.00 | 99 | 1007.3 |
| 20260504031946 | 76 | 359 | 0.0 | 1.7 | 0.00 | 0.00 | 0.00 | 99 | 1007.3 |
| 20260504031746 | 76 | 339 | 0.0 | 0.9 | 0.00 | 0.00 | 0.00 | 99 | 1007.3 |
| 20260504031546 | 76 | 339 | 0.0 | 0.0 | 0.00 | 0.00 | 0.00 | 99 | 1007.3 |
| 20260504031346 | 76 | 342 | 0.0 | 0.0 | 0.00 | 0.00 | 0.00 | 99 | 1007.3 |
| 20260504031146 | 76 | 344 | 0.0 | 0.0 | 0.00 | 0.00 | 0.00 | 99 | 1007.3 |
| 20260504030946 | 76 | 343 | 0.0 | 0.0 | 0.00 | 0.00 | 0.00 | 99 | 1007.3 |
| 20260504030716 | 76 | 343 | 0.0 | 0.0 | 0.00 | 0.00 | 0.00 | 99 | 1007.3 |
| 20260504030516 | 77 | 343 | 0.0 | 0.0 | 0.00 | 0.00 | 0.00 | 99 | 1007.3 |
| 20260504030316 | 77 | 344 | 0.0 | 0.0 | 0.00 | 0.00 | 0.00 | 99 | 1007.3 |
| 20260504030116 | 77 | 344 | 0.0 | 0.0 | 0.00 | 0.00 | 0.00 | 99 | 1007.3 |
| 20260504025916 | 77 | 344 | 0.0 | 1.7 | 0.00 | 0.00 | 0.00 | 99 | 1007.3 |
| 20260504025716 | 77 | 328 | 0.0 | 0.9 | 0.00 | 0.00 | 0.00 | 99 | 1007.3 |
| 20260504025446 | 77 | 329 | 0.0 | 0.0 | 0.00 | 0.00 | 0.00 | 99 | 1007.4 |
| 20260504025246 | 77 | 329 | 0.0 | 0.0 | 0.00 | 0.00 | 0.00 | 99 | 1007.4 |
| 20260504025016 | 77 | 329 | 0.9 | 0.0 | 0.00 | 0.00 | 0.00 | 99 | 1007.4 |
| 20260504024816 | 78 | 331 | 0.0 | 2.6 | 0.00 | 0.00 | 0.00 | 99 | 1007.4 |
| 20260504024616 | 78 | 331 | 0.0 | 0.0 | 0.00 | 0.00 | 0.00 | 99 | 1007.4 |
| 20260504024416 | 78 | 313 | 0.0 | 0.9 | 0.00 | 0.00 | 0.00 | 99 | 1007.4 |
| 20260504024216 | 78 | 309 | 0.9 | 2.6 | 0.00 | 0.00 | 0.00 | 99 | 1007.4 |
| 20260504023946 | 78 | 304 | 0.0 | 1.7 | 0.00 | 0.00 | 0.00 | 99 | 1007.4 |
| 20260504023746 | 78 | 304 | 0.9 | 2.6 | 0.00 | 0.00 | 0.00 | 99 | 1007.4 |
| 20260504023516 | 78 | 302 | 1.7 | 2.6 | 0.00 | 0.00 | 0.00 | 99 | 1007.4 |